Tracking 25370 objects as of 25-Jan-2022
HD Live streaming from Space Station
objects crossing your sky now

DELTA 1 R/B

Track DELTA 1 R/B now!
10-day predictions


NORAD ID: 3036
Int'l Code: 1967-114B
Perigee: 1,417.2 km
Apogee: 1,491.8 km
Inclination: 102.2 °
Period: 114.8 minutes
Semi major axis: 7825 km
RCS: 0.589 m2 (medium)
Launch date: November 10, 1967
Source: United States (US)
Launch site: AIR FORCE WESTERN TEST RANGE (AFWTR)

Note: This is a ROCKET BODY
aabbcc
Your satellite tracking list
Your tracking list is empty




NASA's NSSDC Master Catalog

Two Line Element Set (TLE):
1  3036U 67114B   22025.09915986 -.00000061  00000-0 -85353-4 0  9996
2  3036 102.1514  78.8235 0047697 313.8300  61.0780 12.54104870481661
Source of the keplerian elements: AFSPC